DELTA 1 DEB, 7066

Orbit data source: Space-Track

DELTA 1 DEB, 7066 is space debris in SSO originally from a launch on Tue, 06 Nov 1973 UTC launched from the Air Force Western Test Range (AFWTR). Debris objects in space refer to the collection of defunct objects orbiting the Earth. Examples of debris include non-operational satellites, rocket bodies, and fragments generated from explosions, collisions, or faulty payload assembly.

Loading next visibility...
Identifier
7066, 1973-086BJ
Orbit
SSO
Country
Flag of USUS
Related business
Manufacturer
Unknown
Mission
Spacecraft
Bus & Motor
Unknown
Mass
Unknown
Launch date (UTC)
1973-11-06 (53 years ago)
Launch vehicle
Unknown
Launch site
Air Force Western Test Range (AFWTR)
Object type
Payload
Rocket body
Debris
Shape & HBR
Unknown shape, 0.2 m
Radar Cross Section
Medium (>0.1 m² and <1 m²)

Expand to show TLE details & history
Last TLE update: 1 day ago

TLE from 1 day ago
0 DELTA 1 DEB
1 07066U 73086BJ  26206.39696472  .00000582  00000-0  46323-2 0  9990
2 07066 101.8200 159.5825 0054454  87.9490  63.8472 12.40470367379235
Epoch: 2026-07-25T09:31Z
TLE epoch observation values (Epoch: 2026-07-25T09:31:37.751Z)
Latitude
27.045°
Longitude
-100.33171°
Altitude
1,488.871 km
Speed
7.13 km/s
True Right ascension
23h 02m 44s
True Declination
26° 55' 08"
Sunlit
Object was in daylight at epoch
Visualization orbit readout
Latitude
Unknown
Longitude
Unknown
Altitude
Unknown
Speed
Unknown
Apparent Right ascension
Unknown
Apparent Declination
Unknown
Sunlit
N/A
Visualization observer readout
Local Sidereal Time
22:21:40
Azimuth
Unknown
Elevation
Unknown
Doppler factor
Unknown
Orbital elements
Apogee altitude
1,545.085 km
Perigee altitude
1,459.262 km
Semi-major axis
7,880.31 km
Eccentricity
0.00545
Inclination
101.82°
RAAN
159.5825°
Arg. of periapsis
87.949°
True anomaly
64.40899°
Mean anomaly
63.8472°
Eccentric anomaly
64.12793°
Mean motion
3.10262 °/min
Orbital period
116.03 mins
BSTAR
0.0046323
Loading maneuver chart data...
Computing Atmospheric mass density...
Loading historical data...
Loading historical data...
Loading historical data...
Loading historical data...
Loading historical data...
Loading historical data...
Loading historical data...

Documentation

Showing up to 5 results
|